This is the latest recevied weather packets stored in our database for station/object DH9NFM-12. If no packets are shown the sender has not sent any weather packets the latest 10 day(s).
| Time | Temp. | Humidity | Pressure | Rain* | Wind** | Luminosity | Snow |
|---|---|---|---|---|---|---|---|
| 1777733314 | 22.22° C | 39% | 1018.1 hPa | 0 mm | - | - | - |
| 1777732689 | 21.67° C | 39% | 1018.1 hPa | 0 mm | - | - | - |
| 1777732064 | 21.67° C | 39% | 1018.3 hPa | 0 mm | - | - | - |
| 1777731440 | 22.22° C | 37% | 1018.4 hPa | 0 mm | - | - | - |
| 1777730190 | 22.78° C | 37% | 1018.6 hPa | 0 mm | - | - | - |
| 1777729566 | 23.33° C | 36% | 1018.7 hPa | 0 mm | - | - | - |
| 1777728941 | 22.78° C | 36% | 1018.8 hPa | 0 mm | - | - | - |
| 1777728317 | 22.78° C | 38% | 1019 hPa | 0 mm | - | - | - |
| 1777727692 | 22.22° C | 38% | 1019.2 hPa | 0 mm | - | - | - |
| 1777727067 | 21.67° C | 39% | 1019.2 hPa | 0 mm | - | - | - |
| 1777726443 | 21.67° C | 41% | 1019.4 hPa | 0 mm | - | - | - |
| 1777725818 | 21.67° C | 39% | 1019.5 hPa | 0 mm | - | - | - |
| 1777725193 | 21.11° C | 44% | 1019.6 hPa | 0 mm | - | - | - |
| 1777724569 | 20.56° C | 43% | 1019.8 hPa | 0 mm | - | - | - |
| 1777723944 | 20.56° C | 42% | 1019.9 hPa | 0 mm | - | - | - |
| 1777723319 | 20.56° C | 45% | 1020 hPa | 0 mm | - | - | - |
| 1777722695 | 20.56° C | 45% | 1020.1 hPa | 0 mm | - | - | - |
| 1777722070 | 20° C | 45% | 1020.3 hPa | 0 mm | - | - | - |
| 1777721445 | 20° C | 44% | 1020.4 hPa | 0 mm | - | - | - |
| 1777720821 | 20° C | 47% | 1020.6 hPa | 0 mm | - | - | - |
| 1777720196 | 20° C | 49% | 1020.7 hPa | 0 mm | - | - | - |
| 1777719571 | 19.44° C | 49% | 1020.7 hPa | 0 mm | - | - | - |
| 1777718947 | 18.89° C | 49% | 1020.9 hPa | 0 mm | - | - | - |
| 1777718322 | 18.33° C | 50% | 1020.9 hPa | 0 mm | - | - | - |
| 1777717698 | 18.33° C | 48% | 1020.9 hPa | 0 mm | - | - | - |
* Rain latest hour (hover to see other rain measurements)
** Current wind speed in m/s (hover to see current wind gust speed)